Location: Newark
(41.8922°N, 9.0050°E)
Time: 20:36:56
(UTC+00:00)

Envisat - Pass Details

Date: 27 January 2020
Orbit: 764 x 766 km, 98.1° (Epoch: 22 February)

Event Time Altitude Azimuth Distance (km) Brightness Sun altitude
Rises 04:58:32 0° 28° (NNE) 3,240 6.5 -19.2°
Reaches altitude 10° 05:01:30 10° 46° (NE) 2,308 6.0 -18.7°
Maximum altitude 05:05:08 20° 92° (E) 1,734 5.8 -18.0°
Drops below altitude 10° 05:08:45 10° 138° (SE) 2,295 6.2 -17.4°
Sets 05:11:39 0° 155° (SSE) 3,215 6.7 -16.8°
